STARLINK-1913 (47179 NORAD) Tracking and Keplerian Element Data

This shows tracking and keplerian element data for the satellite.

Feedback or suggestion? Click here.




ElementValue
Catalog47179
NameSTARLINK-1913
Epoch Orbit1540
Epoch Day59.91667824
Epoch Year2021
RAAN268.2415
Inclination53.0532
Eccentricity0.0003063
Argument of Perigee89.0233
Mean Anonmoly275.8606
Mean Motion15.06391374
Decay Rate7.097E-05
L11 47179U 20088BK 21059.91667824 .00007097 00000-0 49498-3 0 9996
L22 47179 53.0532 268.2415 0003063 89.0233 275.8606 15.06391374 15406

Live tracking and technical data element details for STARLINK-1913 (NORAD 47179). STARLINK-1913 can be tracked NOW for your location showing map with azimuth and elevation plus other details from your city location.

Track the satellite on the map from your city or location and see movement details for azimuth, elevation, latitude, longitude, range, height, and movement on the map or in text.







IsCatalogInMostPopularTable: catalog: 47179, numindb: 36
Update: records affected: 1



GetName: 47179 STARLINK-1913

Hit Count: updated at: Mon, 01 Mar 2021 23:19:02 GMT